Torna al catalogo

STARLINK-34919

AttivoComunicazioniSSO
NORAD 65802·PAYLOAD·🇺🇸 United States

Lanciato Sep 26, 2025 da Vandenberg Space Force Base

Loading…

Prossimi Passaggi (prossime 24 ore)

TLE

AggiornatoSource: CelesTrak SupGP

Epoca: Sep 15, 2026, 03:40 UTC

1 65802C 25218M   26258.15326389 -.00022604  00000+0 -70155-3 0  2583
2 65802  97.2848 115.6279 0001943  95.4885 347.1076 15.33455028    13

Traccia STARLINK-34919 in tempo reale con AllMySat

Download on the App Store